Total_Precipitation_Accumulation
0.02 0.01 0.01 0.01 0.01 0.01 0.01 0.01 0.00 0.00 0.00 0.00 0.00 0.00 0.00 0.00 0.00 0.00 0.00 0.00 0.00 0.00 0.01 0.03 0.06 0.10 0.14 0.17 0.21 0.22 0.19 0.15 0.13 0.13 0.12 0.11 0.12 0.12 0.14 0.14 0.15 0.16 0.17
0.02 0.02 0.01 0.02 0.02 0.01 0.01 0.00 0.00 0.00 0.00 0.00 0.00 0.00 0.00 0.00 0.00 0.00 0.00 0.00 0.00 0.00 0.01 0.03 0.08 0.13 0.18 0.22 0.25 0.25 0.22 0.18 0.15 0.14 0.13 0.13 0.13 0.14 0.15 0.16 0.17 0.17 0.18
0.02 0.02 0.02 0.01 0.01 0.01 0.01 0.01 0.00 0.01 0.00 0.00 0.00 0.00 0.00 0.00 0.00 0.00 0.00 0.00 0.00 0.00 0.01 0.03 0.07 0.11 0.17 0.21 0.24 0.28 0.29 0.25 0.22 0.19 0.17 0.16 0.16 0.16 0.17 0.19 0.20 0.21 0.21
0.03 0.02 0.02 0.02 0.02 0.01 0.01 0.01 0.02 0.02 0.02 0.02 0.02 0.02 0.01 0.00 0.00 0.00 0.00 0.01 0.01 0.00 0.01 0.01 0.03 0.07 0.12 0.16 0.20 0.26 0.32 0.33 0.29 0.26 0.24 0.22 0.21 0.22 0.24 0.25 0.27 0.28 0.29
0.06 0.04 0.03 0.04 0.04 0.03 0.03 0.03 0.02 0.03 0.04 0.04 0.04 0.02 0.01 0.01 0.01 0.00 0.01 0.01 0.01 0.01 0.01 0.01 0.01 0.03 0.06 0.10 0.13 0.22 0.32 0.39 0.37 0.34 0.33 0.33 0.32 0.32 0.34 0.36 0.37 0.38 0.38
0.12 0.09 0.06 0.05 0.06 0.06 0.06 0.07 0.07 0.07 0.06 0.06 0.05 0.03 0.01 0.01 0.01 0.01 0.01 0.01 0.01 0.01 0.01 0.02 0.02 0.02 0.03 0.06 0.13 0.20 0.31 0.39 0.41 0.40 0.40 0.41 0.41 0.42 0.44 0.47 0.48 0.47 0.46
0.20 0.17 0.12 0.11 0.12 0.11 0.12 0.14 0.14 0.12 0.10 0.11 0.09 0.05 0.02 0.01 0.01 0.01 0.01 0.01 0.01 0.02 0.02 0.02 0.03 0.04 0.06 0.08 0.13 0.17 0.22 0.30 0.40 0.45 0.45 0.45 0.46 0.49 0.53 0.57 0.60 0.60 0.58
0.32 0.26 0.21 0.20 0.17 0.15 0.16 0.17 0.18 0.17 0.16 0.16 0.14 0.12 0.05 0.01 0.01 0.02 0.02 0.01 0.02 0.02 0.02 0.04 0.05 0.06 0.08 0.10 0.11 0.11 0.13 0.18 0.30 0.44 0.49 0.47 0.46 0.48 0.54 0.62 0.68 0.73 0.74
0.49 0.42 0.35 0.30 0.25 0.20 0.18 0.19 0.22 0.22 0.20 0.18 0.17 0.19 0.13 0.05 0.04 0.02 0.02 0.03 0.03 0.02 0.03 0.04 0.05 0.06 0.06 0.06 0.07 0.07 0.08 0.11 0.17 0.32 0.45 0.50 0.51 0.54 0.61 0.70 0.78 0.88 0.92
0.61 0.55 0.47 0.41 0.34 0.29 0.23 0.23 0.26 0.27 0.28 0.24 0.19 0.17 0.17 0.14 0.15 0.08 0.03 0.04 0.05 0.04 0.05 0.06 0.06 0.07 0.08 0.08 0.09 0.11 0.15 0.19 0.24 0.38 0.56 0.67 0.74 0.83 0.93 1.01 1.09 1.19 1.22
0.63 0.63 0.58 0.52 0.45 0.40 0.38 0.36 0.35 0.35 0.34 0.31 0.28 0.25 0.25 0.22 0.20 0.20 0.12 0.06 0.07 0.08 0.08 0.08 0.07 0.08 0.09 0.10 0.13 0.20 0.28 0.33 0.41 0.54 0.70 0.87 1.02 1.15 1.27 1.35 1.44 1.55 1.65
0.54 0.54 0.57 0.54 0.50 0.47 0.45 0.44 0.44 0.44 0.43 0.41 0.38 0.35 0.34 0.31 0.26 0.28 0.26 0.17 0.15 0.14 0.14 0.15 0.14 0.14 0.15 0.16 0.20 0.29 0.34 0.40 0.49 0.61 0.79 0.99 1.12 1.22 1.33 1.44 1.52 1.60 1.73
0.50 0.48 0.48 0.48 0.49 0.51 0.54 0.54 0.52 0.50 0.51 0.49 0.46 0.43 0.41 0.37 0.34 0.38 0.40 0.31 0.24 0.19 0.19 0.19 0.20 0.22 0.24 0.26 0.31 0.40 0.43 0.49 0.56 0.67 0.83 0.99 1.06 1.06 1.05 1.10 1.21 1.31 1.39
0.49 0.49 0.50 0.51 0.52 0.53 0.53 0.52 0.51 0.50 0.51 0.49 0.49 0.48 0.45 0.42 0.41 0.42 0.46 0.51 0.49 0.39 0.33 0.32 0.33 0.38 0.42 0.44 0.50 0.55 0.51 0.57 0.59 0.64 0.74 0.85 0.90 0.83 0.75 0.80 0.89 1.00 1.09
0.51 0.50 0.50 0.49 0.50 0.50 0.48 0.49 0.47 0.45 0.44 0.43 0.43 0.44 0.44 0.42 0.42 0.44 0.49 0.58 0.72 0.72 0.60 0.51 0.52 0.55 0.56 0.56 0.59 0.53 0.48 0.57 0.60 0.60 0.63 0.66 0.67 0.65 0.62 0.63 0.66 0.70 0.75
0.46 0.45 0.46 0.47 0.45 0.44 0.42 0.41 0.39 0.36 0.36 0.36 0.36 0.38 0.39 0.39 0.41 0.45 0.50 0.58 0.69 0.82 0.82 0.67 0.60 0.61 0.62 0.60 0.61 0.50 0.44 0.53 0.50 0.51 0.52 0.53 0.52 0.50 0.51 0.53 0.56 0.58 0.60
0.35 0.34 0.34 0.35 0.36 0.35 0.33 0.33 0.31 0.30 0.31 0.32 0.32 0.34 0.36 0.38 0.41 0.45 0.51 0.59 0.68 0.78 0.84 0.76 0.65 0.60 0.57 0.52 0.47 0.38 0.32 0.30 0.30 0.37 0.37 0.36 0.37 0.39 0.38 0.40 0.45 0.50 0.52
0.27 0.26 0.26 0.25 0.25 0.25 0.25 0.25 0.26 0.26 0.28 0.30 0.32 0.34 0.37 0.41 0.48 0.53 0.58 0.63 0.65 0.66 0.67 0.63 0.53 0.46 0.41 0.35 0.30 0.23 0.19 0.16 0.15 0.22 0.23 0.23 0.24 0.25 0.26 0.27 0.32 0.40 0.46
0.23 0.22 0.21 0.21 0.20 0.19 0.20 0.21 0.22 0.24 0.26 0.29 0.33 0.36 0.40 0.44 0.47 0.48 0.48 0.48 0.46 0.43 0.42 0.41 0.36 0.30 0.26 0.22 0.19 0.14 0.10 0.09 0.07 0.09 0.10 0.10 0.12 0.16 0.19 0.23 0.27 0.31 0.33
0.18 0.18 0.18 0.18 0.17 0.16 0.17 0.18 0.20 0.23 0.29 0.34 0.38 0.41 0.44 0.44 0.42 0.40 0.37 0.35 0.32 0.28 0.26 0.26 0.27 0.23 0.20 0.16 0.13 0.10 0.07 0.05 0.04 0.03 0.04 0.06 0.09 0.13 0.15 0.14 0.13 0.12 0.12
0.13 0.13 0.15 0.16 0.16 0.18 0.22 0.25 0.28 0.33 0.37 0.40 0.41 0.41 0.40 0.40 0.37 0.31 0.26 0.23 0.20 0.20 0.24 0.28 0.28 0.23 0.15 0.10 0.07 0.04 0.04 0.04 0.02 0.02 0.04 0.04 0.05 0.04 0.03 0.03 0.05 0.06 0.09
0.18 0.19 0.23 0.26 0.30 0.35 0.48 0.48 0.44 0.43 0.43 0.40 0.37 0.32 0.29 0.28 0.24 0.22 0.20 0.19 0.21 0.25 0.33 0.37 0.30 0.18 0.07 0.04 0.03 0.05 0.09 0.14 0.09 0.02 0.04 0.03 0.01 0.01 0.01 0.03 0.08 0.10 0.13
0.35 0.38 0.43 0.49 0.55 0.62 0.67 0.59 0.51 0.41 0.37 0.34 0.29 0.24 0.19 0.15 0.12 0.10 0.10 0.12 0.16 0.21 0.23 0.20 0.13 0.04 0.03 0.04 0.11 0.19 0.17 0.18 0.12 0.02 0.05 0.04 0.02 0.03 0.02 0.04 0.08 0.09 0.10
0.58 0.66 0.71 0.72 0.70 0.67 0.61 0.49 0.39 0.31 0.26 0.21 0.17 0.13 0.10 0.07 0.06 0.07 0.10 0.15 0.11 0.07 0.05 0.03 0.03 0.04 0.05 0.07 0.15 0.26 0.23 0.16 0.06 0.02 0.04 0.06 0.02 0.02 0.02 0.03 0.04 0.06 0.09
0.75 0.75 0.71 0.64 0.55 0.46 0.37 0.27 0.19 0.14 0.11 0.08 0.06 0.04 0.04 0.03 0.04 0.12 0.18 0.19 0.09 0.02 0.01 0.02 0.06 0.06 0.06 0.06 0.06 0.15 0.21 0.23 0.14 0.02 0.02 0.04 0.03 0.02 0.02 0.01 0.02 0.04 0.08
0.56 0.48 0.38 0.30 0.22 0.17 0.13 0.09 0.07 0.05 0.03 0.02 0.02 0.02 0.03 0.04 0.09 0.17 0.17 0.14 0.06 0.02 0.04 0.03 0.01 0.00 0.00 0.00 0.02 0.09 0.27 0.50 0.37 0.17 0.01 0.08 0.12 0.15 0.23 0.03 0.01 0.02 0.03